| time (UTC) | temp C | wind direction | speed KPH | gust KPH | rain 1hr cm | rain 24hr cm | rain mn cm | humidity % | barometer mb |
| 20260903123526 | 11 | 153 | 0.0 | 0.0 | 0.00 | 0.10 | 0.10 | 94 | 1011.4 |
| 20260903123025 | 11 | 154 | 0.0 | 0.0 | 0.00 | 0.10 | 0.10 | 93 | 1011.2 |
| 20260903122519 | 11 | 148 | 0.0 | 0.0 | 0.13 | 0.10 | 0.10 | 93 | 1011.4 |
| 20260903122019 | 11 | 148 | 0.0 | 0.0 | 0.13 | 0.10 | 0.10 | 92 | 1011.4 |
| 20260903121514 | 11 | 146 | 0.0 | 1.6 | 0.18 | 0.08 | 0.08 | 92 | 1011.2 |
| 20260903121010 | 11 | 136 | 1.6 | 1.6 | 0.30 | 0.08 | 0.08 | 91 | 1011.2 |
| 20260903120509 | 11 | 125 | 0.0 | 1.6 | 0.30 | 0.05 | 0.05 | 91 | 1011.3 |
| 20260903120009 | 11 | 144 | 0.0 | 1.6 | 0.18 | 0.03 | 0.03 | 91 | 1011.2 |
| 20260903115508 | 11 | 191 | 3.2 | 3.2 | 0.00 | 0.00 | 0.00 | 90 | 1011.1 |
| 20260903115007 | 11 | 141 | 1.6 | 1.6 | 0.00 | 0.00 | 0.00 | 90 | 1011.1 |
| 20260903114457 | 11 | 175 | 3.2 | 3.2 | 0.00 | 0.00 | 0.00 | 90 | 1010.7 |
| 20260903113953 | 12 | 157 | 1.6 | 1.6 | 0.00 | 0.00 | 0.00 | 89 | 1011.0 |
| 20260903113449 | 12 | 140 | 1.6 | 3.2 | 0.00 | 0.00 | 0.00 | 89 | 1010.8 |
| 20260903112944 | 12 | 150 | 0.0 | 3.2 | 0.00 | 0.00 | 0.00 | 89 | 1010.8 |
| 20260903112440 | 12 | 136 | 0.0 | 0.0 | 0.00 | 0.00 | 0.00 | 90 | 1010.8 |
| 20260903111939 | 12 | 149 | 0.0 | 3.2 | 0.00 | 0.00 | 0.00 | 90 | 1010.7 |
| 20260903111439 | 11 | 144 | 0.0 | 1.6 | 0.00 | 0.00 | 0.00 | 92 | 1010.7 |
| 20260903110935 | 11 | 159 | 0.0 | 1.6 | 0.00 | 0.00 | 0.00 | 92 | 1010.7 |
| 20260903110430 | 11 | 159 | 1.6 | 1.6 | 0.00 | 0.00 | 0.00 | 93 | 1010.8 |
| 20260903105926 | 11 | 149 | 0.0 | 1.6 | 0.00 | 0.00 | 0.00 | 93 | 1010.7 |
| 20260903105421 | 11 | 156 | 0.0 | 0.0 | 0.00 | 0.00 | 0.00 | 92 | 1010.8 |
| 20260903104920 | 11 | 145 | 0.0 | 0.0 | 0.00 | 0.00 | 0.00 | 93 | 1010.7 |
| 20260903104420 | 11 | 144 | 1.6 | 1.6 | 0.00 | 0.00 | 0.00 | 93 | 1010.5 |
| 20260903103917 | 11 | 158 | 0.0 | 0.0 | 0.00 | 0.00 | 0.00 | 93 | 1010.8 |
| 20260903103413 | 11 | 146 | 0.0 | 0.0 | 0.00 | 0.00 | 0.00 | 93 | 1010.8 |
| 20260903102908 | 11 | 142 | 0.0 | 0.0 | 0.00 | 0.00 | 0.00 | 93 | 1011.1 |
| 20260903102402 | 11 | 154 | 0.0 | 0.0 | 0.00 | 0.00 | 0.00 | 93 | 1010.6 |
| 20260903101857 | 11 | 116 | 0.0 | 0.0 | 0.00 | 0.00 | 0.00 | 93 | 1010.8 |
| 20260903101357 | 11 | 145 | 0.0 | 0.0 | 0.00 | 0.00 | 0.00 | 93 | 1010.9 |
| 20260903100852 | 11 | 158 | 0.0 | 0.0 | 0.00 | 0.00 | 0.00 | 93 | 1010.6 |
| 20260903100347 | 11 | 163 | 0.0 | 0.0 | 0.00 | 0.00 | 0.00 | 94 | 1010.8 |
| 20260903095838 | 12 | 185 | 0.0 | 0.0 | 0.00 | 0.00 | 0.00 | 93 | 1010.8 |
| 20260903095338 | 11 | 153 | 0.0 | 0.0 | 0.00 | 0.00 | 0.00 | 94 | 1010.8 |
| 20260903094834 | 11 | 156 | 0.0 | 0.0 | 0.00 | 0.00 | 0.00 | 94 | 1010.5 |
| 20260903094328 | 11 | 149 | 0.0 | 0.0 | 0.00 | 0.00 | 0.00 | 94 | 1010.7 |
| 20260903093824 | 12 | 158 | 0.0 | 0.0 | 0.00 | 0.00 | 0.00 | 93 | 1010.9 |
| 20260903093319 | 12 | 144 | 0.0 | 0.0 | 0.00 | 0.00 | 0.00 | 93 | 1010.8 |
| 20260903092814 | 12 | 146 | 0.0 | 0.0 | 0.00 | 0.00 | 0.00 | 93 | 1010.7 |
| 20260903092309 | 12 | 152 | 0.0 | 0.0 | 0.00 | 0.00 | 0.00 | 93 | 1010.9 |
| 20260903091807 | 12 | 154 | 0.0 | 0.0 | 0.00 | 0.00 | 0.00 | 92 | 1010.8 |
| 20260903091302 | 12 | 150 | 0.0 | 0.0 | 0.00 | 0.00 | 0.00 | 92 | 1010.6 |
| 20260903090758 | 12 | 135 | 0.0 | 0.0 | 0.00 | 0.00 | 0.00 | 92 | 1010.6 |
| 20260903090257 | 12 | 166 | 0.0 | 0.0 | 0.00 | 0.00 | 0.00 | 92 | 1010.7 |
| 20260903085755 | 12 | 168 | 0.0 | 0.0 | 0.00 | 0.00 | 0.00 | 93 | 1010.7 |
| 20260903085249 | 12 | 115 | 1.6 | 3.2 | 0.00 | 0.00 | 0.00 | 93 | 1010.7 |
| 20260903084748 | 12 | 151 | 0.0 | 0.0 | 0.00 | 0.00 | 0.00 | 93 | 1010.6 |
| 20260903084237 | 12 | 194 | 1.6 | 3.2 | 0.00 | 0.00 | 0.00 | 94 | 1010.7 |
| 20260903083733 | 12 | 171 | 0.0 | 0.0 | 0.00 | 0.00 | 0.00 | 94 | 1010.5 |
| 20260903083227 | 12 | 165 | 0.0 | 0.0 | 0.00 | 0.00 | 0.00 | 94 | 1010.6 |
| 20260903082726 | 12 | 181 | 0.0 | 0.0 | 0.00 | 0.00 | 0.00 | 94 | 1010.7 |
| 20260903082222 | 12 | 162 | 0.0 | 3.2 | 0.00 | 0.00 | 0.00 | 95 | 1010.6 |
| 20260903081722 | 12 | 157 | 0.0 | 0.0 | 0.00 | 0.00 | 0.00 | 95 | 1010.5 |
| 20260903081218 | 12 | 141 | 0.0 | 0.0 | 0.00 | 0.00 | 0.00 | 95 | 1010.4 |
| 20260903080714 | 12 | 141 | 0.0 | 0.0 | 0.00 | 0.00 | 0.00 | 95 | 1010.4 |
| 20260903080212 | 12 | 111 | 1.6 | 1.6 | 0.00 | 0.00 | 0.00 | 95 | 1010.6 |
| 20260903075710 | 12 | 148 | 1.6 | 1.6 | 0.00 | 0.00 | 0.00 | 95 | 1010.6 |
| 20260903075206 | 12 | 173 | 0.0 | 4.8 | 0.00 | 0.00 | 0.00 | 96 | 1010.6 |
| 20260903074704 | 12 | 151 | 0.0 | 0.0 | 0.00 | 0.00 | 0.00 | 96 | 1010.5 |
| 20260903074200 | 11 | 145 | 0.0 | 0.0 | 0.00 | 0.00 | 0.00 | 96 | 1010.6 |
| 20260903073655 | 11 | 147 | 1.6 | 1.6 | 0.00 | 0.00 | 0.00 | 96 | 1010.6 |
| 20260903073151 | 11 | 133 | 1.6 | 1.6 | 0.00 | 0.00 | 0.00 | 95 | 1010.3 |
| 20260903072646 | 11 | 144 | 0.0 | 1.6 | 0.00 | 0.00 | 0.00 | 96 | 1010.5 |
| 20260903072143 | 11 | 170 | 1.6 | 1.6 | 0.00 | 0.00 | 0.00 | 95 | 1010.5 |
| 20260903071639 | 11 | 158 | 1.6 | 1.6 | 0.00 | 0.00 | 0.00 | 95 | 1010.4 |
| 20260903071134 | 11 | 125 | 1.6 | 3.2 | 0.00 | 0.00 | 0.00 | 95 | 1010.3 |
| 20260903070633 | 11 | 136 | 1.6 | 1.6 | 0.00 | 0.00 | 0.00 | 95 | 1010.2 |
| 20260903070129 | 11 | 135 | 1.6 | 1.6 | 0.00 | 0.00 | 0.00 | 95 | 1010.3 |
| 20260903065629 | 11 | 142 | 1.6 | 1.6 | 0.00 | 0.48 | 0.48 | 95 | 1010.3 |
| 20260903065124 | 11 | 126 | 1.6 | 3.2 | 0.00 | 0.48 | 0.48 | 95 | 1010.4 |
| 20260903064618 | 11 | 161 | 1.6 | 1.6 | 0.00 | 0.48 | 0.48 | 95 | 1010.3 |
| 20260903064114 | 11 | 154 | 0.0 | 0.0 | 0.00 | 0.48 | 0.48 | 95 | 1010.3 |
| 20260903063609 | 11 | 147 | 0.0 | 0.0 | 0.00 | 0.48 | 0.48 | 95 | 1010.3 |
| 20260903063104 | 11 | 118 | 0.0 | 0.0 | 0.00 | 0.48 | 0.48 | 95 | 1010.2 |
| 20260903062559 | 11 | 143 | 0.0 | 0.0 | 0.00 | 0.48 | 0.48 | 95 | 1010.3 |
| 20260903062054 | 11 | 153 | 0.0 | 0.0 | 0.00 | 0.48 | 0.48 | 95 | 1010.3 |
| 20260903061549 | 11 | 144 | 1.6 | 3.2 | 0.00 | 0.48 | 0.48 | 95 | 1010.4 |
| 20260903061049 | 11 | 118 | 0.0 | 0.0 | 0.00 | 0.48 | 0.48 | 95 | 1010.3 |
| 20260903060549 | 11 | 144 | 0.0 | 1.6 | 0.00 | 0.48 | 0.48 | 95 | 1010.2 |
| 20260903060044 | 11 | 157 | 1.6 | 1.6 | 0.00 | 0.48 | 0.48 | 96 | 1010.5 |
| 20260903055542 | 11 | 158 | 0.0 | 0.0 | 0.00 | 0.48 | 0.48 | 95 | 1010.4 |
| 20260903055041 | 11 | 157 | 0.0 | 0.0 | 0.00 | 0.48 | 0.48 | 95 | 1010.4 |
| 20260903054536 | 11 | 157 | 0.0 | 0.0 | 0.00 | 0.48 | 0.48 | 95 | 1010.5 |
| 20260903054032 | 11 | 162 | 0.0 | 1.6 | 0.00 | 0.48 | 0.48 | 95 | 1010.4 |
| 20260903053532 | 12 | 140 | 1.6 | 3.2 | 0.00 | 0.48 | 0.48 | 95 | 1010.4 |
| 20260903053028 | 12 | 135 | 3.2 | 3.2 | 0.00 | 0.48 | 0.48 | 95 | 1010.4 |
| 20260903052524 | 12 | 147 | 0.0 | 3.2 | 0.00 | 0.48 | 0.48 | 95 | 1010.5 |
| 20260903052019 | 12 | 149 | 1.6 | 3.2 | 0.00 | 0.48 | 0.48 | 95 | 1010.3 |
| 20260903051514 | 12 | 109 | 4.8 | 4.8 | 0.00 | 0.48 | 0.48 | 95 | 1010.3 |
| 20260903051010 | 12 | 141 | 3.2 | 4.8 | 0.00 | 0.48 | 0.48 | 95 | 1010.4 |
| 20260903050509 | 12 | 155 | 0.0 | 1.6 | 0.00 | 0.48 | 0.48 | 95 | 1010.4 |
| 20260903050005 | 12 | 146 | 0.0 | 0.0 | 0.00 | 0.48 | 0.48 | 94 | 1010.5 |
| 20260903045459 | 12 | 139 | 3.2 | 3.2 | 0.00 | 0.48 | 0.48 | 94 | 1010.2 |
| 20260903044955 | 12 | 127 | 1.6 | 4.8 | 0.00 | 0.48 | 0.48 | 94 | 1010.4 |
| 20260903044451 | 12 | 135 | 1.6 | 3.2 | 0.00 | 0.48 | 0.48 | 94 | 1010.3 |
| 20260903043947 | 12 | 132 | 3.2 | 3.2 | 0.00 | 0.48 | 0.48 | 94 | 1010.3 |
| 20260903043443 | 12 | 136 | 3.2 | 3.2 | 0.00 | 0.48 | 0.48 | 93 | 1010.3 |
| 20260903042941 | 12 | 143 | 0.0 | 1.6 | 0.00 | 0.48 | 0.48 | 93 | 1010.2 |
| 20260903042436 | 12 | 136 | 3.2 | 3.2 | 0.00 | 0.48 | 0.48 | 92 | 1010.2 |
| 20260903041932 | 12 | 139 | 4.8 | 4.8 | 0.00 | 0.48 | 0.48 | 92 | 1010.0 |
| 20260903041428 | 13 | 133 | 3.2 | 4.8 | 0.00 | 0.48 | 0.48 | 91 | 1010.2 |
| 20260903040924 | 13 | 131 | 3.2 | 4.8 | 0.00 | 0.48 | 0.48 | 90 | 1010.0 |
| 20260903040423 | 13 | 156 | 1.6 | 3.2 | 0.00 | 0.48 | 0.48 | 88 | 1009.9 |
| 20260903035919 | 13 | 157 | 0.0 | 0.0 | 0.00 | 0.48 | 0.48 | 87 | 1010.0 |
| 20260903035415 | 14 | 153 | 0.0 | 0.0 | 0.00 | 0.48 | 0.48 | 86 | 1009.8 |
| 20260903034914 | 14 | 167 | 0.0 | 1.6 | 0.00 | 0.48 | 0.48 | 86 | 1009.9 |
| 20260903034409 | 14 | 150 | 0.0 | 0.0 | 0.00 | 0.48 | 0.48 | 85 | 1009.7 |
| 20260903033905 | 14 | 135 | 1.6 | 4.8 | 0.00 | 0.48 | 0.48 | 85 | 1009.7 |
| 20260903033359 | 14 | 161 | 0.0 | 1.6 | 0.00 | 0.48 | 0.48 | 87 | 1009.6 |
| 20260903032854 | 13 | 137 | 0.0 | 3.2 | 0.00 | 0.48 | 0.48 | 89 | 1009.4 |
| 20260903032350 | 13 | 180 | 3.2 | 3.2 | 0.00 | 0.48 | 0.48 | 92 | 1009.4 |
| 20260903031845 | 13 | 100 | 1.6 | 3.2 | 0.00 | 0.48 | 0.48 | 94 | 1009.6 |
| 20260903031344 | 13 | 83 | 3.2 | 16.1 | 0.00 | 0.48 | 0.48 | 94 | 1009.5 |
| 20260903030840 | 13 | 162 | 0.0 | 1.6 | 0.00 | 0.48 | 0.48 | 94 | 1009.3 |
| 20260903030336 | 13 | 156 | 0.0 | 1.6 | 0.00 | 0.48 | 0.48 | 94 | 1009.2 |
| 20260903025832 | 13 | 149 | 0.0 | 1.6 | 0.00 | 0.48 | 0.48 | 93 | 1009.3 |
| 20260903025327 | 13 | 163 | 0.0 | 0.0 | 0.00 | 0.48 | 0.48 | 93 | 1009.1 |
| 20260903024827 | 13 | 149 | 0.0 | 1.6 | 0.00 | 0.48 | 0.48 | 93 | 1009.2 |
| 20260903024326 | 13 | 145 | 0.0 | 0.0 | 0.00 | 0.48 | 0.48 | 92 | 1009.2 |
| 20260903023822 | 13 | 157 | 0.0 | 1.6 | 0.00 | 0.48 | 0.48 | 92 | 1008.9 |
| 20260903023317 | 13 | 153 | 0.0 | 1.6 | 0.00 | 0.48 | 0.48 | 91 | 1008.9 |
| 20260903022812 | 13 | 117 | 1.6 | 3.2 | 0.00 | 0.48 | 0.48 | 90 | 1008.9 |
| 20260903022310 | 13 | 110 | 3.2 | 4.8 | 0.00 | 0.48 | 0.48 | 89 | 1008.9 |
| 20260903021804 | 14 | 125 | 1.6 | 3.2 | 0.00 | 0.48 | 0.48 | 88 | 1008.8 |
| 20260903021301 | 15 | 155 | 0.0 | 1.6 | 0.00 | 0.48 | 0.48 | 87 | 1008.6 |
| 20260903020801 | 15 | 131 | 1.6 | 1.6 | 0.00 | 0.48 | 0.48 | 84 | 1008.6 |
| 20260903020255 | 15 | 175 | 0.0 | 1.6 | 0.00 | 0.48 | 0.48 | 83 | 1008.5 |
| 20260903015751 | 15 | 181 | 1.6 | 4.8 | 0.00 | 0.48 | 0.48 | 82 | 1008.6 |
| 20260903015246 | 15 | 187 | 3.2 | 4.8 | 0.00 | 0.48 | 0.48 | 81 | 1008.5 |
| 20260903014741 | 15 | 197 | 8.0 | 14.5 | 0.00 | 0.48 | 0.48 | 81 | 1008.6 |
| 20260903014240 | 15 | 197 | 3.2 | 8.0 | 0.00 | 0.48 | 0.48 | 82 | 1008.6 |
| 20260903013736 | 16 | 166 | 4.8 | 4.8 | 0.00 | 0.48 | 0.48 | 82 | 1008.5 |
| 20260903013235 | 15 | 174 | 3.2 | 3.2 | 0.00 | 0.48 | 0.48 | 83 | 1008.4 |
| 20260903012734 | 16 | 206 | 3.2 | 11.3 | 0.00 | 0.48 | 0.48 | 84 | 1008.4 |
| 20260903012234 | 15 | 169 | 3.2 | 9.7 | 0.00 | 0.48 | 0.48 | 86 | 1008.2 |
| 20260903011728 | 15 | 222 | 8.0 | 14.5 | 0.00 | 0.48 | 0.48 | 86 | 1008.3 |
| 20260903011222 | 15 | 187 | 6.4 | 24.1 | 0.00 | 0.48 | 0.48 | 85 | 1008.5 |
| 20260903010718 | 15 | 211 | 12.9 | 16.1 | 0.00 | 0.48 | 0.48 | 88 | 1008.4 |
| 20260903010217 | 15 | 185 | 3.2 | 11.3 | 0.00 | 0.48 | 0.48 | 88 | 1007.9 |
| 20260903005717 | 15 | 175 | 6.4 | 11.3 | 0.00 | 0.48 | 0.48 | 89 | 1007.9 |
| 20260903005212 | 15 | 205 | 6.4 | 9.7 | 0.00 | 0.48 | 0.48 | 90 | 1007.9 |
| 20260903004708 | 15 | 164 | 3.2 | 11.3 | 0.00 | 0.48 | 0.48 | 92 | 1007.9 |
| 20260903004203 | 15 | 189 | 8.0 | 11.3 | 0.00 | 0.48 | 0.48 | 93 | 1007.6 |
| 20260903003658 | 15 | 164 | 6.4 | 9.7 | 0.00 | 0.48 | 0.48 | 94 | 1007.7 |
| 20260903003152 | 15 | 149 | 1.6 | 9.7 | 0.18 | 0.48 | 0.48 | 94 | 1007.8 |
| 20260903002648 | 15 | 188 | 1.6 | 3.2 | 0.13 | 0.46 | 0.46 | 94 | 1007.7 |
| 20260903002142 | 15 | 143 | 3.2 | 3.2 | 0.61 | 0.46 | 0.46 | 94 | 1007.8 |
| 20260903001637 | 15 | 187 | 4.8 | 4.8 | 0.30 | 0.41 | 0.41 | 93 | 1007.8 |
| 20260903001136 | 15 | 169 | 4.8 | 4.8 | 0.00 | 0.36 | 0.36 | 94 | 1007.9 |
| 20260903000632 | 15 | 180 | 0.0 | 1.6 | 0.00 | 0.36 | 0.36 | 94 | 1007.4 |
| 20260903000126 | 15 | 159 | 1.6 | 1.6 | 0.00 | 0.36 | 0.36 | 93 | 1007.4 |
| 20260902235625 | 15 | 164 | 0.0 | 0.0 | 0.00 | 0.36 | 0.36 | 94 | 1007.2 |
| 20260902235120 | 15 | 183 | 0.0 | 0.0 | 0.00 | 0.36 | 0.36 | 93 | 1007.4 |
| 20260902234614 | 15 | 143 | 0.0 | 0.0 | 0.00 | 0.36 | 0.36 | 94 | 1007.3 |
| 20260902234112 | 15 | 179 | 0.0 | 0.0 | 0.00 | 0.36 | 0.36 | 94 | 1007.3 |
| 20260902233608 | 15 | 142 | 0.0 | 0.0 | 0.00 | 0.36 | 0.36 | 94 | 1007.2 |
| 20260902233103 | 15 | 195 | 0.0 | 0.0 | 0.00 | 0.36 | 0.36 | 94 | 1007.1 |
| 20260902232601 | 15 | 164 | 0.0 | 0.0 | 0.00 | 0.36 | 0.36 | 94 | 1007.0 |
| 20260902232055 | 15 | 153 | 0.0 | 0.0 | 0.00 | 0.36 | 0.36 | 94 | 1007.1 |
| 20260902231550 | 15 | 118 | 1.6 | 3.2 | 0.00 | 0.36 | 0.36 | 94 | 1007.1 |
| 20260902231044 | 15 | 175 | 1.6 | 3.2 | 0.13 | 0.36 | 0.36 | 94 | 1007.2 |
| 20260902230539 | 15 | 155 | 0.0 | 0.0 | 0.00 | 0.33 | 0.33 | 93 | 1007.3 |
| 20260902230038 | 15 | 158 | 1.6 | 1.6 | 0.18 | 0.33 | 0.33 | 93 | 1007.4 |
| 20260902225533 | 15 | 126 | 1.6 | 1.6 | 0.30 | 0.33 | 0.33 | 93 | 1007.4 |
| 20260902225032 | 15 | 153 | 0.0 | 1.6 | 0.30 | 0.30 | 0.30 | 93 | 1007.5 |
| 20260902224531 | 15 | 163 | 0.0 | 0.0 | 0.18 | 0.28 | 0.28 | 93 | 1007.5 |
| 20260902224027 | 15 | 147 | 0.0 | 0.0 | 0.13 | 0.25 | 0.25 | 92 | 1007.4 |
| 20260902223523 | 15 | 149 | 0.0 | 0.0 | 0.00 | 0.23 | 0.23 | 92 | 1007.6 |
| 20260902223022 | 15 | 152 | 0.0 | 0.0 | 0.18 | 0.23 | 0.23 | 92 | 1007.5 |
| 20260902222521 | 15 | 143 | 0.0 | 1.6 | 0.00 | 0.20 | 0.20 | 91 | 1007.3 |
| 20260902222020 | 15 | 175 | 0.0 | 0.0 | 0.18 | 0.20 | 0.20 | 91 | 1007.6 |
| 20260902221515 | 15 | 153 | 0.0 | 0.0 | 0.18 | 0.20 | 0.20 | 91 | 1007.5 |
| 20260902221011 | 15 | 153 | 0.0 | 0.0 | 0.13 | 0.18 | 0.18 | 91 | 1007.3 |
| 20260902220506 | 15 | 133 | 1.6 | 1.6 | 0.13 | 0.18 | 0.18 | 90 | 1007.5 |
| 20260902220000 | 15 | 175 | 1.6 | 1.6 | 0.00 | 0.15 | 0.15 | 90 | 1007.5 |
| 20260902215456 | 15 | 163 | 0.0 | 3.2 | 0.18 | 0.15 | 0.15 | 88 | 1007.7 |
| 20260902214951 | 15 | 163 | 1.6 | 1.6 | 0.18 | 0.15 | 0.15 | 88 | 1007.5 |
| 20260902214451 | 15 | 156 | 1.6 | 1.6 | 0.13 | 0.13 | 0.13 | 87 | 1007.5 |
| 20260902213950 | 15 | 158 | 1.6 | 1.6 | 0.13 | 0.13 | 0.13 | 87 | 1007.5 |
| 20260902213447 | 15 | 193 | 3.2 | 4.8 | 0.18 | 0.10 | 0.10 | 85 | 1007.6 |
| 20260902212944 | 15 | 148 | 1.6 | 3.2 | 0.00 | 0.08 | 0.08 | 84 | 1007.6 |
| 20260902212441 | 15 | 193 | 1.6 | 3.2 | 0.00 | 0.08 | 0.08 | 84 | 1007.7 |
| 20260902211932 | 15 | 230 | 3.2 | 4.8 | 0.13 | 0.08 | 0.08 | 83 | 1007.7 |
| 20260902211427 | 15 | 171 | 1.6 | 4.8 | 0.13 | 0.08 | 0.08 | 82 | 1007.6 |
| 20260902210917 | 16 | 164 | 3.2 | 4.8 | 0.00 | 0.05 | 0.05 | 82 | 1007.6 |
| 20260902210417 | 16 | 152 | 4.8 | 4.8 | 0.00 | 0.05 | 0.05 | 81 | 1007.9 |
| 20260902205915 | 16 | 202 | 4.8 | 8.0 | 0.18 | 0.05 | 0.05 | 81 | 1007.5 |
| 20260902205409 | 16 | 178 | 0.0 | 1.6 | 0.18 | 0.05 | 0.05 | 80 | 1007.5 |
| 20260902204905 | 16 | 197 | 6.4 | 11.3 | 0.00 | 0.03 | 0.03 | 77 | 1007.6 |
| 20260902204404 | 17 | 168 | 8.0 | 9.7 | 0.00 | 0.03 | 0.03 | 76 | 1007.7 |
| 20260902203900 | 17 | 185 | 8.0 | 9.7 | 0.00 | 0.03 | 0.03 | 74 | 1007.6 |
| 20260902203356 | 17 | 173 | 4.8 | 8.0 | 0.00 | 0.03 | 0.03 | 72 | 1007.6 |
| 20260902202850 | 17 | 188 | 8.0 | 12.9 | 0.00 | 0.03 | 0.03 | 72 | 1007.5 |
| 20260902202345 | 18 | 188 | 8.0 | 11.3 | 0.00 | 0.03 | 0.03 | 71 | 1007.4 |
| 20260902201842 | 18 | 178 | 4.8 | 12.9 | 0.00 | 0.03 | 0.03 | 71 | 1007.6 |
| 20260902201336 | 18 | 198 | 6.4 | 9.7 | 0.00 | 0.03 | 0.03 | 73 | 1007.7 |
| 20260902200831 | 18 | 191 | 3.2 | 9.7 | 0.00 | 0.03 | 0.03 | 72 | 1007.4 |
| 20260902200326 | 17 | 196 | 4.8 | 4.8 | 0.00 | 0.03 | 0.03 | 74 | 1007.6 |
| 20260902195822 | 17 | 224 | 8.0 | 14.5 | 0.00 | 0.03 | 0.03 | 74 | 1007.5 |
| 20260902195321 | 17 | 178 | 3.2 | 4.8 | 0.00 | 0.03 | 0.03 | 75 | 1007.7 |
| 20260902194815 | 17 | 157 | 3.2 | 8.0 | 0.00 | 0.03 | 0.03 | 77 | 1007.7 |
| 20260902194310 | 17 | 165 | 1.6 | 4.8 | 0.00 | 0.03 | 0.03 | 78 | 1007.8 |
| 20260902193806 | 16 | 180 | 6.4 | 9.7 | 0.00 | 0.03 | 0.03 | 78 | 1007.9 |
| 20260902193301 | 16 | 193 | 1.6 | 12.9 | 0.00 | 0.03 | 0.03 | 81 | 1008.0 |
| 20260902192800 | 16 | 133 | 1.6 | 4.8 | 0.13 | 0.03 | 0.03 | 81 | 1008.0 |
| 20260902192259 | 16 | 206 | 1.6 | 4.8 | 0.13 | 0.03 | 0.03 | 80 | 1008.1 |
| 20260902191758 | 17 | 133 | 9.7 | 12.9 | 0.00 | 0.00 | 0.00 | 77 | 1007.8 |
| 20260902191254 | 17 | 247 | 14.5 | 32.2 | 0.00 | 0.00 | 0.00 | 72 | 1008.0 |
| 20260902190749 | 18 | 246 | 11.3 | 20.9 | 0.00 | 0.00 | 0.00 | 69 | 1008.1 |
| 20260902190249 | 20 | 208 | 8.0 | 22.5 | 0.00 | 0.00 | 0.00 | 63 | 1008.3 |
| 20260902185744 | 20 | 143 | 3.2 | 8.0 | 0.00 | 0.00 | 0.00 | 56 | 1007.7 |
| 20260902185240 | 20 | 205 | 4.8 | 11.3 | 0.00 | 0.00 | 0.00 | 57 | 1007.7 |
| 20260902184736 | 20 | 167 | 8.0 | 11.3 | 0.00 | 0.00 | 0.00 | 57 | 1007.7 |
| 20260902184231 | 20 | 259 | 11.3 | 16.1 | 0.00 | 0.00 | 0.00 | 56 | 1007.9 |
| 20260902183727 | 21 | 211 | 6.4 | 8.0 | 0.00 | 0.00 | 0.00 | 58 | 1007.8 |
| 20260902183223 | 21 | 221 | 8.0 | 11.3 | 0.00 | 0.00 | 0.00 | 58 | 1008.0 |
| 20260902182719 | 21 | 163 | 1.6 | 1.6 | 0.00 | 0.00 | 0.00 | 61 | 1007.9 |
| 20260902182216 | 20 | 126 | 1.6 | 3.2 | 0.00 | 0.00 | 0.00 | 65 | 1007.8 |
| 20260902181712 | 19 | 70 | 3.2 | 8.0 | 0.00 | 0.00 | 0.00 | 65 | 1008.1 |
| 20260902181211 | 19 | 128 | 3.2 | 3.2 | 0.00 | 0.00 | 0.00 | 66 | 1008.0 |
| 20260902180711 | 18 | 149 | 1.6 | 4.8 | 0.00 | 0.00 | 0.00 | 68 | 1008.3 |
| 20260902180207 | 18 | 132 | 1.6 | 1.6 | 0.00 | 0.00 | 0.00 | 74 | 1008.1 |
| 20260902175702 | 18 | 153 | 0.0 | 1.6 | 0.00 | 0.00 | 0.00 | 75 | 1008.3 |
| 20260902175158 | 17 | 150 | 0.0 | 1.6 | 0.00 | 0.00 | 0.00 | 74 | 1008.3 |
| 20260902174654 | 17 | 152 | 0.0 | 1.6 | 0.00 | 0.00 | 0.00 | 78 | 1008.4 |
| 20260902174149 | 17 | 148 | 0.0 | 1.6 | 0.00 | 0.00 | 0.00 | 78 | 1008.5 |
| 20260902173644 | 17 | 119 | 1.6 | 3.2 | 0.00 | 0.00 | 0.00 | 75 | 1008.4 |
| 20260902173139 | 17 | 137 | 1.6 | 1.6 | 0.00 | 0.00 | 0.00 | 76 | 1008.6 |
| 20260902172638 | 17 | 139 | 0.0 | 1.6 | 0.00 | 0.00 | 0.00 | 76 | 1008.6 |
| 20260902172138 | 17 | 138 | 1.6 | 1.6 | 0.00 | 0.00 | 0.00 | 76 | 1008.5 |
| 20260902171633 | 17 | 160 | 0.0 | 1.6 | 0.00 | 0.00 | 0.00 | 78 | 1008.5 |
| 20260902171129 | 17 | 134 | 0.0 | 1.6 | 0.00 | 0.00 | 0.00 | 77 | 1008.9 |
| 20260902170626 | 17 | 144 | 0.0 | 1.6 | 0.00 | 0.00 | 0.00 | 78 | 1008.6 |
| 20260902170121 | 17 | 148 | 0.0 | 0.0 | 0.00 | 0.00 | 0.00 | 77 | 1008.8 |
| 20260902165620 | 17 | 152 | 0.0 | 0.0 | 0.00 | 0.00 | 0.00 | 78 | 1009.0 |
| 20260902165114 | 17 | 152 | 0.0 | 0.0 | 0.00 | 0.00 | 0.00 | 79 | 1008.8 |
| 20260902164609 | 17 | 152 | 0.0 | 0.0 | 0.00 | 0.00 | 0.00 | 78 | 1008.9 |
| 20260902164108 | 17 | 152 | 0.0 | 0.0 | 0.00 | 0.00 | 0.00 | 77 | 1008.9 |
| 20260902163604 | 17 | 155 | 0.0 | 1.6 | 0.00 | 0.00 | 0.00 | 76 | 1009.1 |
| 20260902163102 | 17 | 156 | 0.0 | 1.6 | 0.00 | 0.00 | 0.00 | 76 | 1009.0 |
| 20260902162602 | 17 | 162 | 1.6 | 3.2 | 0.00 | 0.00 | 0.00 | 73 | 1009.2 |
| 20260902162057 | 17 | 203 | 1.6 | 3.2 | 0.00 | 0.00 | 0.00 | 73 | 1009.1 |
| 20260902161552 | 17 | 162 | 0.0 | 1.6 | 0.00 | 0.00 | 0.00 | 74 | 1009.1 |
| 20260902161048 | 17 | 173 | 1.6 | 3.2 | 0.00 | 0.00 | 0.00 | 73 | 1009.4 |
| 20260902160543 | 17 | 169 | 3.2 | 8.0 | 0.00 | 0.00 | 0.00 | 73 | 1009.3 |
| 20260902160039 | 17 | 158 | 1.6 | 1.6 | 0.00 | 0.00 | 0.00 | 77 | 1009.3 |
| 20260902155532 | 17 | 153 | 1.6 | 4.8 | 0.00 | 0.00 | 0.00 | 76 | 1009.3 |
| 20260902155031 | 17 | 149 | 0.0 | 1.6 | 0.00 | 0.00 | 0.00 | 77 | 1009.5 |
| 20260902154526 | 17 | 124 | 1.6 | 1.6 | 0.00 | 0.00 | 0.00 | 78 | 1009.5 |
| 20260902154021 | 17 | 112 | 3.2 | 8.0 | 0.00 | 0.00 | 0.00 | 77 | 1009.4 |
| 20260902153519 | 17 | 146 | 1.6 | 4.8 | 0.00 | 0.00 | 0.00 | 81 | 1009.5 |
| 20260902153015 | 16 | 155 | 0.0 | 4.8 | 0.00 | 0.00 | 0.00 | 84 | 1009.8 |
| 20260902152512 | 16 | 118 | 1.6 | 4.8 | 0.00 | 0.00 | 0.00 | 88 | 1009.6 |
| 20260902152007 | 16 | 117 | 3.2 | 4.8 | 0.00 | 0.00 | 0.00 | 93 | 1009.7 |
| 20260902151503 | 15 | 164 | 0.0 | 4.8 | 0.00 | 0.00 | 0.00 | 94 | 1009.7 |
| 20260902151002 | 15 | 156 | 0.0 | 0.0 | 0.00 | 0.00 | 0.00 | 95 | 1009.8 |
| 20260902150458 | 15 | 135 | 0.0 | 0.0 | 0.00 | 0.00 | 0.00 | 96 | 1009.8 |
| 20260902145958 | 14 | 156 | 0.0 | 0.0 | 0.00 | 0.00 | 0.00 | 96 | 1009.9 |
| 20260902145453 | 14 | 156 | 0.0 | 0.0 | 0.00 | 0.00 | 0.00 | 96 | 1010.0 |
| 20260902144947 | 13 | 153 | 0.0 | 0.0 | 0.00 | 0.00 | 0.00 | 97 | 1010.2 |
| 20260902144444 | 13 | 145 | 0.0 | 0.0 | 0.00 | 0.00 | 0.00 | 97 | 1010.3 |
| 20260902143943 | 13 | 136 | 0.0 | 0.0 | 0.00 | 0.00 | 0.00 | 97 | 1010.2 |
| 20260902143439 | 13 | 156 | 0.0 | 0.0 | 0.00 | 0.00 | 0.00 | 97 | 1010.4 |
| 20260902142934 | 13 | 132 | 0.0 | 0.0 | 0.00 | 0.00 | 0.00 | 97 | 1010.3 |
| 20260902142430 | 13 | 127 | 0.0 | 0.0 | 0.00 | 0.00 | 0.00 | 96 | 1010.5 |
| 20260902141925 | 13 | 148 | 0.0 | 0.0 | 0.00 | 0.00 | 0.00 | 97 | 1010.4 |
| 20260902141420 | 13 | 140 | 0.0 | 0.0 | 0.00 | 0.00 | 0.00 | 97 | 1010.4 |
| 20260902140920 | 12 | 149 | 0.0 | 0.0 | 0.00 | 0.00 | 0.00 | 96 | 1010.6 |
| 20260902140416 | 12 | 149 | 0.0 | 0.0 | 0.00 | 0.00 | 0.00 | 96 | 1010.6 |
| 20260902135915 | 12 | 156 | 0.0 | 0.0 | 0.00 | 0.00 | 0.00 | 96 | 1010.5 |
| 20260902135412 | 12 | 147 | 0.0 | 0.0 | 0.00 | 0.00 | 0.00 | 97 | 1010.4 |
| 20260902134910 | 12 | 145 | 0.0 | 0.0 | 0.00 | 0.00 | 0.00 | 97 | 1010.4 |
| 20260902134406 | 12 | 153 | 0.0 | 0.0 | 0.00 | 0.00 | 0.00 | 96 | 1010.4 |
| 20260902133901 | 12 | 148 | 0.0 | 0.0 | 0.00 | 0.00 | 0.00 | 96 | 1010.6 |
| 20260902133400 | 12 | 160 | 0.0 | 0.0 | 0.00 | 0.00 | 0.00 | 96 | 1010.4 |
| 20260902132855 | 12 | 147 | 0.0 | 0.0 | 0.00 | 0.00 | 0.00 | 96 | 1010.3 |
| 20260902132350 | 12 | 147 | 0.0 | 0.0 | 0.00 | 0.00 | 0.00 | 96 | 1010.3 |
| 20260902131846 | 12 | 148 | 0.0 | 0.0 | 0.00 | 0.00 | 0.00 | 96 | 1010.4 |
| 20260902131343 | 13 | 124 | 0.0 | 0.0 | 0.00 | 0.00 | 0.00 | 96 | 1010.6 |
| 20260902130841 | 13 | 139 | 0.0 | 0.0 | 0.00 | 0.00 | 0.00 | 96 | 1010.5 |
| 20260902130338 | 13 | 156 | 0.0 | 0.0 | 0.00 | 0.00 | 0.00 | 96 | 1010.7 |
| 20260902125832 | 13 | 141 | 0.0 | 0.0 | 0.00 | 0.00 | 0.00 | 96 | 1010.6 |
| 20260902125329 | 13 | 149 | 0.0 | 0.0 | 0.00 | 0.00 | 0.00 | 96 | 1010.9 |
| 20260902124825 | 13 | 149 | 0.0 | 0.0 | 0.00 | 0.00 | 0.00 | 96 | 1010.8 |
| 20260902124320 | 13 | 149 | 0.0 | 0.0 | 0.00 | 0.00 | 0.00 | 96 | 1010.8 |
| 20260902123815 | 13 | 132 | 0.0 | 0.0 | 0.00 | 0.00 | 0.00 | 96 | 1010.8 |